Regional Weather Roundup
Issued by NWS

Home | Current Version | Previous Version | Graphics & Text | Print | Product List | Glossary Off
Versions: 1 2 3 4 5 6 7 8 9 10 11 12 13 14 15 16 17 18 19 20 21 22 23 24 25 26 27 28 29 30 31 32 33 34 35 36 37 38 39 40 41 42 43 44 45 46 47 48 49 50

000
ASUS43 KDMX 291503
RWRIA

WEATHER ROUNDUP FOR IOWA
NATIONAL WEATHER SERVICE DES MOINES IA
1000 AM CDT FRI JUL 29 2016

NOTE: "FAIR" INDICATES FEW OR NO CLOUDS BELOW 12,000 FEET WITH NO
SIGNIFICANT WEATHER AND/OR OBSTRUCTIONS TO VISIBILITY.

* - THESE STATIONS ARE NOT NWS STATIONS...THUS NOT UNDER NWS
QUALITY CONTROL.  THEY ALSO DO NOT REPORT WEATHER SUCH
AS PRECIPITATION OR FOG.

IAZ001>003-012>014-020>022-031>034-043>046-291600-
   NORTHWEST IOWA

CITY           SKY/WX    TMP DP  RH WIND       PRES   REMARKS
CARROLL *      MOSUNNY   70  63  78 N12       30.06R
CHEROKEE *     MOSUNNY   69  62  79 N8        30.09R
DENISON *      MOSUNNY   72  63  73 N8        30.06S
LE MARS *      MOSUNNY   68  61  77 NE7       30.10S
SHELDON *      SUNNY     70  61  73 N8        30.08S
SIOUX CITY     MOSUNNY   74  61  63 N7        30.08R
SPENCER        CLOUDY    68  60  75 NE8       30.09R
STORM LAKE *   MOSUNNY   68  61  77 N8        30.09S
$$

IAZ055>058-069>071-079>083-090>094-291600-
   SOUTHWEST IOWA

CITY           SKY/WX    TMP DP  RH WIND       PRES   REMARKS
ATLANTIC *     CLOUDY    72  64  78 N12       30.06F
CLARINDA *       N/A     72  64  78 MISG      30.07S
COUNCIL BLFS * CLOUDY    68  63  83 CALM      30.07F
CRESTON *      CLOUDY    68  61  77 N14       30.05F
HARLAN  *      MOSUNNY   70  64  83 N6        30.10F
LAMONI         CLOUDY    69  63  81 NW13      30.03S
RED OAK *      CLOUDY    68  63  83 N5        30.06F
SHENANDOAH *   CLOUDY    70  66  88 N7        30.06F
$$

IAZ047>049-059>061-072>074-084-291600-
   CENTRAL IOWA

CITY           SKY/WX    TMP DP  RH WIND       PRES   REMARKS
AMES           CLOUDY    67  65  93 N5        30.03R
ANKENY *         N/A    N/A N/A N/A MISG        N/A
BOONE *        CLOUDY    64  63  94 N7        30.04R
CHARITON *       N/A    N/A N/A N/A MISG        N/A
DES MOINES     CLOUDY    70  62  76 N5        30.02S
GRINNELL*      CLOUDY    67  63  87 NW6       30.01S
KNOXVILLE *    CLOUDY    66  63  88 MISG      30.00F
MARSHALLTOWN   LGT RAIN  65  65 100 NW8       30.01R FOG
NEWTON *       CLOUDY    66  66 100 NW7       30.01R
PELLA *        CLOUDY    67  63  89 NW8       30.01F
PERRY *        CLOUDY    67  64  90 N7        30.05R
$$

IAZ004>006-015-016-023>025-035-036-291600-
   NORTH CENTRAL IOWA

CITY           SKY/WX    TMP DP  RH WIND       PRES   REMARKS
ALGONA *       CLOUDY    66  63  88 N9        30.06F
ESTHERVILLE    CLOUDY    66  62  87 N3        30.09R
FORT DODGE *   CLOUDY    64  61  88 N5        30.06R
MASON CITY     CLOUDY    64  62  93 NE7       30.06R
FOREST CITY *  DRIZZLE   63  61  94 N10       30.05S
IOWA FALLS *   CLOUDY    65  62  91 N6        30.03S
$$

IAZ007>011-017>019-026>030-037>042-050>054-066-291600-
   NORTHEAST IOWA

CITY           SKY/WX    TMP DP  RH WIND       PRES   REMARKS
CEDAR RAPIDS   CLOUDY    69  69 100 W3        29.97R FOG
CHARLES CITY * CLOUDY    64  64 100 NE12      30.02S
CLINTON *      CLOUDY    70  68  93 E5        29.96S
DECORAH *      LGT RAIN  63  63 100 NE6       30.02R
DUBUQUE        CLOUDY    68  64  87 N8        29.98S
MONTICELLO *   CLOUDY    68  64  88 NE6       29.97S
OELWEIN *      CLOUDY    66  64  94 NE9       30.01R
WATERLOO       CLOUDY    68  64  87 NE7       29.99R
$$

IAZ064-065-067-068-078-291600-
   EAST CENTRAL IOWA

CITY           SKY/WX    TMP DP  RH WIND       PRES   REMARKS
DAVENPORT      CLOUDY    70  68  93 N3        29.96S FOG
IOWA CITY      CLOUDY    71  66  84 NW7       29.98S
MT. PLEASANT * CLOUDY    71  69  94 W5        29.98S
MUSCATINE *    CLOUDY    70  66  88 NW7       29.96S
QUAD CITIES    PTSUNNY   75  68  78 SW6       29.94S
$$

IAZ062-063-075>077-085>089-095>099-291600-
   SOUTHEAST IOWA

CITY           SKY/WX    TMP DP  RH WIND       PRES   REMARKS
BURLINGTON     CLOUDY    69  66  90 VRB3      29.97S
FAIRFIELD *    CLOUDY    68  64  88 W8        29.99R
KEOKUK *       CLOUDY    72  66  83 W9        29.97F
OSKALOOSA *    RAIN      65  64  96 W6        30.01R
CENTERVILLE *  PTSUNNY   70  64  83 NW5       30.03S
OTTUMWA        CLOUDY    66  63  90 W8        30.00S
WASHINGTON *   CLOUDY    70  66  88 W7        29.98F
$$

ABBREVIATIONS USED IN REMARKS
   TC - TEMPERATURES IN CELSIUS
  WCI - WIND CHILL INDEX
   HX - HEAT INDEX
  VSB - VISIBILITY
$$





USA.gov is the U.S. government's official web portal to all federal, state and local government web resources and services.